Regional Weather Roundup
Issued by NWS Northern Indiana

Home | Current Version | Previous Version | Graphics & Text | Print | Product List | Glossary On
Versions: 1 2 3 4 5 6 7 8 9 10 11 12 13 14 15 16 17 18 19 20 21 22 23 24 25 26 27 28 29 30 31 32 33 34 35 36 37 38 39 40 41 42 43 44 45 46 47 48 49 50
000
ASUS43 KIWX 240210
RWRIWX

KIWX WEATHER ROUNDUP
NATIONAL WEATHER SERVICE NORTHERN INDIANA
900 PM EST FRI FEB 23 2018

NOTE: "FAIR" INDICATES FEW OR NO CLOUDS BELOW 12,000 FEET WITH NO
SIGNIFICANT WEATHER AND/OR OBSTRUCTIONS TO VISIBILITY.

* THESE STATIONS ARE NOT UNDER NWS QUALITY CONTROL. THEY ALSO MAY NOT
  REPORT WEATHER SUCH AS PRECIPITATION OR FOG.

INZ001>027-240300-
NORTHERN INDIANA

CITY           SKY/WX    TMP DP  RH WIND       PRES   REMARKS
GARY*          CLOUDY    39  34  81 W7        30.27S
VALPARAISO     CLOUDY    39  34  82 W8        30.26S
MICHIGAN CITY* CLOUDY    36  34  93 W3        30.27S
LAPORTE*       CLOUDY    37  35  89 NW7       30.26R
SOUTH BEND     CLOUDY    37  34  89 NW9       30.25S
ELKHART*       CLOUDY    39  36  87 NW6       30.25R
GOSHEN         CLOUDY    41  38  89 W7        30.24R
MONTICELLO*    CLOUDY    39  37  95 NW10      30.26R
LOGANSPORT*    CLOUDY    39  37  93 NW7       30.26S
ROCHESTER*     CLOUDY    43  41  93 W6        30.25S
WARSAW*        CLOUDY    39  37  93 N8        30.24R
AUBURN*        CLOUDY    43  41  93 W8        30.23S
FORT WAYNE     CLOUDY    44  41  89 W10       30.24S
HUNTINGTON*    CLOUDY    42  40  95 W5        30.23S
PERU/GRISSOM   CLOUDY    42  42 100 NW8       30.24S
MARION*        CLOUDY    43  42  96 CALM      30.24F FOG

$$
INZ028>050-240300-
CENTRAL INDIANA

CITY           SKY/WX    TMP DP  RH WIND       PRES   REMARKS
LAFAYETTE      CLOUDY    41  40  96 NW6       30.27R
KOKOMO*        CLOUDY    43  41  93 NW9       30.25F
MUNCIE*        CLOUDY    48  44  86 NW9       30.22F
INDIANAPOLIS   CLOUDY    47  44  90 NW8       30.25R

$$
MIZ043>046-050>051-056>058-064>065-071>073-077>080-240300-
SOUTHWEST LOWER MICHIGAN

CITY           SKY/WX    TMP DP  RH WIND       PRES   REMARKS
BATTLE CREEK   CLOUDY    38  35  89 W9        30.22S
BENTON HARBOR  CLOUDY    37  33  85 W5        30.25F
COLDWATER*     CLOUDY    39  39  99 W10G16    30.22S
HILLSDALE*     CLOUDY    37  37 100 NW10G16   30.20R FOG
HOLLAND        CLOUDY    37  33  85 W7        30.24S
GRAND RAPIDS   CLOUDY    38  34  85 W8        30.22R
KALAMAZOO      CLOUDY    38  34  85 W12       30.24R
STURGIS*       CLOUDY    40  37  92 NW6       30.23R
THREE RIVERS*  CLOUDY    40  36  86 W10       30.24S

$$
OHZ001>008-015>018-024>025-240300-
NORTHWEST OHIO

CITY           SKY/WX    TMP DP  RH WIND       PRES   REMARKS
WAUSEON*       CLOUDY    45  45 100 W10       30.20S
DEFIANCE       CLOUDY    45  42  89 W6        30.22R
FINDLAY        CLOUDY    49  43  80 W10       30.21S
TOLEDO EXPRESS CLOUDY    46  44  93 W9        30.20S
TOLEDO METCALF CLOUDY    48  42  80 W10       30.21S
LIMA           CLOUDY    48  46  93 W10       30.22S

$$
AND FOR LAKE MICHIGAN COASTAL AND OPEN LAKE BUOY OBSERVATIONS

STATION/POSITION TEMP    WIND        PRES    VSBY  WAVE
                 AIR SEA DIR/SP/G                  HT/PER
                 (F)     (DEG/KT/KT) (MB)    (MI)  (FT/S)
CALUMET HARBOR    38     250/  3/  5 1024.0S
MICHIGAN CITY     35     250/  7/  8   N/A
BURNS HARBOR      36     270/  6/ 13 1025.4
SAINT JOSEPH      34     230/  3/  4 1024.4

$$
&&




USA.gov is the U.S. government's official web portal to all federal, state and local government web resources and services.